PWSweather.com
Personal Weather Stations
Station Observations
KOHAVON11
Long Road Station, Avon, OH 44011

Long Road StationAvon, OH 44011

Lat: 41.437, Lon: -82.0477

Elevation: 686

Station Type: Davis Vantage Pro2

http://www.avon-weather.com

High Low Average
Temperature 53.5°F11.9°C 38.2°F3.4°C 47.0°F8.3°C
Dew Point 48.1°F8.9°C 33.5°F0.8°C 43.1°F6.2°C
Winds 12.0 mph 19.3 kmh Calm Calm 3.0 mph SE4.8 kmh SE
Wind Gusts 17.0 mph27.4 kmh -- 7.0 mph11.3 kmh
Humidity 90% 77% 86%
Pressure 29.97 in1014.9 mb 29.85 in1010.8 mb -
Precipitation 0.01 in0.3 mm - -
Hour Temp Dew Point Humidity Winds Wind Gusts Pressure Precip Precip Rate Daily Precip Total
12:04 AM 50.5°F10.3°C 47.4°F8.6°C 89% Calm Calm -- 29.90 in1012.5 mb 0.00 in0.0 mm 0.00 in0.0 mm 0.00 in0.0 mm
12:09 AM 50.4°F10.2°C 47.3°F8.5°C 89% Calm Calm -- 29.89 in1012.2 mb 0.00 in0.0 mm 0.00 in0.0 mm 0.00 in0.0 mm
12:14 AM 50.3°F10.2°C 47.2°F8.4°C 89% Calm Calm -- 29.89 in1012.2 mb 0.00 in0.0 mm 0.00 in0.0 mm 0.00 in0.0 mm
12:19 AM 50.2°F10.1°C 47.1°F8.4°C 89% Calm Calm -- 29.89 in1012.2 mb 0.00 in0.0 mm 0.00 in0.0 mm 0.00 in0.0 mm
12:24 AM 50.1°F10.1°C 47.0°F8.3°C 89% Calm Calm -- 29.89 in1012.2 mb 0.00 in0.0 mm 0.00 in0.0 mm 0.00 in0.0 mm
12:29 AM 50.0°F10.0°C 46.9°F8.3°C 89% Calm Calm -- 29.89 in1012.2 mb 0.00 in0.0 mm 0.00 in0.0 mm 0.00 in0.0 mm
12:34 AM 50.0°F10.0°C 46.9°F8.3°C 89% Calm Calm -- 29.89 in1012.2 mb 0.00 in0.0 mm 0.00 in0.0 mm 0.00 in0.0 mm
12:39 AM 49.9°F9.9°C 46.8°F8.2°C 89% Calm Calm -- 29.89 in1012.2 mb 0.00 in0.0 mm 0.00 in0.0 mm 0.00 in0.0 mm
12:44 AM 49.8°F9.9°C 46.7°F8.2°C 89% Calm Calm 1.0 mph1.6 kmh 29.89 in1012.2 mb 0.00 in0.0 mm 0.00 in0.0 mm 0.00 in0.0 mm
12:49 AM 49.7°F9.8°C 46.6°F8.1°C 89% Calm Calm -- 29.89 in1012.2 mb 0.00 in0.0 mm 0.00 in0.0 mm 0.00 in0.0 mm
12:54 AM 49.6°F9.8°C 46.5°F8.1°C 89% Calm Calm -- 29.89 in1012.2 mb 0.00 in0.0 mm 0.00 in0.0 mm 0.00 in0.0 mm
12:59 AM 49.5°F9.7°C 46.4°F8.0°C 89% Calm Calm -- 29.89 in1012.2 mb 0.00 in0.0 mm 0.00 in0.0 mm 0.00 in0.0 mm
01:04 AM 49.4°F9.7°C 46.3°F7.9°C 89% Calm Calm -- 29.89 in1012.2 mb 0.00 in0.0 mm 0.00 in0.0 mm 0.00 in0.0 mm
01:09 AM 49.3°F9.6°C 46.2°F7.9°C 89% Calm Calm -- 29.89 in1012.2 mb 0.00 in0.0 mm 0.00 in0.0 mm 0.00 in0.0 mm
01:14 AM 49.3°F9.6°C 46.2°F7.9°C 89% Calm Calm -- 29.88 in1011.9 mb 0.00 in0.0 mm 0.00 in0.0 mm 0.00 in0.0 mm
01:19 AM 49.2°F9.6°C 46.1°F7.8°C 89% Calm Calm -- 29.88 in1011.9 mb 0.00 in0.0 mm 0.00 in0.0 mm 0.00 in0.0 mm
01:24 AM 49.1°F9.5°C 46.0°F7.8°C 89% Calm Calm -- 29.88 in1011.9 mb 0.00 in0.0 mm 0.00 in0.0 mm 0.00 in0.0 mm
01:29 AM 49.1°F9.5°C 46.0°F7.8°C 89% Calm Calm -- 29.88 in1011.9 mb 0.00 in0.0 mm 0.00 in0.0 mm 0.00 in0.0 mm
01:34 AM 49.0°F9.4°C 45.9°F7.7°C 89% Calm Calm -- 29.88 in1011.9 mb 0.00 in0.0 mm 0.00 in0.0 mm 0.00 in0.0 mm
01:39 AM 49.0°F9.4°C 45.9°F7.7°C 89% Calm Calm -- 29.88 in1011.9 mb 0.00 in0.0 mm 0.00 in0.0 mm 0.00 in0.0 mm
01:44 AM 48.9°F9.4°C 45.8°F7.7°C 89% Calm Calm -- 29.88 in1011.9 mb 0.00 in0.0 mm 0.00 in0.0 mm 0.00 in0.0 mm
01:49 AM 48.9°F9.4°C 45.8°F7.7°C 89% Calm Calm -- 29.88 in1011.9 mb 0.00 in0.0 mm 0.00 in0.0 mm 0.00 in0.0 mm
01:54 AM 48.9°F9.4°C 45.8°F7.7°C 89% Calm Calm -- 29.87 in1011.5 mb 0.00 in0.0 mm 0.00 in0.0 mm 0.00 in0.0 mm
01:59 AM 48.8°F9.3°C 45.7°F7.6°C 89% Calm Calm -- 29.87 in1011.5 mb 0.00 in0.0 mm 0.00 in0.0 mm 0.00 in0.0 mm
02:04 AM 48.8°F9.3°C 45.7°F7.6°C 89% Calm Calm -- 29.87 in1011.5 mb 0.00 in0.0 mm 0.00 in0.0 mm 0.00 in0.0 mm
02:09 AM 48.8°F9.3°C 45.7°F7.6°C 89% Calm Calm -- 29.87 in1011.5 mb 0.00 in0.0 mm 0.00 in0.0 mm 0.00 in0.0 mm
02:14 AM 48.7°F9.3°C 45.6°F7.6°C 89% Calm Calm -- 29.87 in1011.5 mb 0.00 in0.0 mm 0.00 in0.0 mm 0.00 in0.0 mm
02:19 AM 48.7°F9.3°C 45.6°F7.6°C 89% Calm Calm -- 29.87 in1011.5 mb 0.00 in0.0 mm 0.00 in0.0 mm 0.00 in0.0 mm
02:24 AM 48.7°F9.3°C 45.6°F7.6°C 89% Calm Calm -- 29.87 in1011.5 mb 0.00 in0.0 mm 0.00 in0.0 mm 0.00 in0.0 mm
02:29 AM 48.7°F9.3°C 45.6°F7.6°C 89% Calm Calm -- 29.87 in1011.5 mb 0.00 in0.0 mm 0.00 in0.0 mm 0.00 in0.0 mm
02:34 AM 48.7°F9.3°C 45.6°F7.6°C 89% Calm Calm -- 29.87 in1011.5 mb 0.00 in0.0 mm 0.00 in0.0 mm 0.00 in0.0 mm
02:39 AM 48.7°F9.3°C 45.6°F7.6°C 89% Calm Calm -- 29.87 in1011.5 mb 0.00 in0.0 mm 0.00 in0.0 mm 0.00 in0.0 mm
02:44 AM 48.7°F9.3°C 45.6°F7.6°C 89% Calm Calm -- 29.87 in1011.5 mb 0.00 in0.0 mm 0.00 in0.0 mm 0.00 in0.0 mm
02:49 AM 48.6°F9.2°C 45.5°F7.5°C 89% Calm Calm -- 29.87 in1011.5 mb 0.00 in0.0 mm 0.00 in0.0 mm 0.00 in0.0 mm
02:54 AM 48.6°F9.2°C 45.5°F7.5°C 89% Calm Calm -- 29.87 in1011.5 mb 0.00 in0.0 mm 0.00 in0.0 mm 0.00 in0.0 mm
02:59 AM 48.5°F9.2°C 45.4°F7.4°C 89% Calm Calm 1.0 mph1.6 kmh 29.87 in1011.5 mb 0.00 in0.0 mm 0.00 in0.0 mm 0.00 in0.0 mm
03:04 AM 48.5°F9.2°C 45.4°F7.4°C 89% Calm Calm -- 29.87 in1011.5 mb 0.00 in0.0 mm 0.00 in0.0 mm 0.00 in0.0 mm
03:09 AM 48.4°F9.1°C 45.3°F7.4°C 89% Calm Calm -- 29.86 in1011.2 mb 0.00 in0.0 mm 0.00 in0.0 mm 0.01 in0.3 mm
03:14 AM 48.4°F9.1°C 45.3°F7.4°C 89% Calm Calm -- 29.86 in1011.2 mb 0.00 in0.0 mm 0.00 in0.0 mm 0.01 in0.3 mm
03:19 AM 48.4°F9.1°C 45.3°F7.4°C 89% Calm Calm -- 29.86 in1011.2 mb 0.00 in0.0 mm 0.00 in0.0 mm 0.01 in0.3 mm
03:24 AM 48.3°F9.1°C 45.2°F7.3°C 89% Calm Calm -- 29.86 in1011.2 mb 0.00 in0.0 mm 0.00 in0.0 mm 0.01 in0.3 mm
03:29 AM 48.3°F9.1°C 45.2°F7.3°C 89% Calm Calm -- 29.86 in1011.2 mb 0.00 in0.0 mm 0.00 in0.0 mm 0.01 in0.3 mm
03:34 AM 48.3°F9.1°C 45.2°F7.3°C 89% Calm Calm -- 29.86 in1011.2 mb 0.00 in0.0 mm 0.00 in0.0 mm 0.01 in0.3 mm
03:39 AM 48.4°F9.1°C 45.3°F7.4°C 89% Calm Calm -- 29.86 in1011.2 mb 0.00 in0.0 mm 0.00 in0.0 mm 0.01 in0.3 mm
03:44 AM 48.4°F9.1°C 45.3°F7.4°C 89% Calm Calm 2.0 mph3.2 kmh 29.86 in1011.2 mb 0.00 in0.0 mm 0.00 in0.0 mm 0.01 in0.3 mm
03:49 AM 48.4°F9.1°C 45.3°F7.4°C 89% Calm Calm -- 29.86 in1011.2 mb 0.00 in0.0 mm 0.00 in0.0 mm 0.01 in0.3 mm
03:54 AM 48.4°F9.1°C 45.3°F7.4°C 89% 3.0 mph ENE4.8 kmh ENE 3.0 mph4.8 kmh 29.86 in1011.2 mb 0.00 in0.0 mm 0.00 in0.0 mm 0.01 in0.3 mm
03:59 AM 48.4°F9.1°C 45.3°F7.4°C 89% Calm Calm 3.0 mph4.8 kmh 29.85 in1010.8 mb 0.00 in0.0 mm 0.00 in0.0 mm 0.01 in0.3 mm
04:04 AM 48.4°F9.1°C 45.3°F7.4°C 89% Calm Calm -- 29.85 in1010.8 mb 0.00 in0.0 mm 0.00 in0.0 mm 0.01 in0.3 mm
04:09 AM 48.4°F9.1°C 45.3°F7.4°C 89% Calm Calm 2.0 mph3.2 kmh 29.86 in1011.2 mb 0.00 in0.0 mm 0.00 in0.0 mm 0.01 in0.3 mm
04:14 AM 48.4°F9.1°C 45.3°F7.4°C 89% Calm Calm -- 29.86 in1011.2 mb 0.00 in0.0 mm 0.00 in0.0 mm 0.01 in0.3 mm
04:19 AM 48.4°F9.1°C 45.3°F7.4°C 89% Calm Calm -- 29.85 in1010.8 mb 0.00 in0.0 mm 0.00 in0.0 mm 0.01 in0.3 mm
04:24 AM 48.4°F9.1°C 45.3°F7.4°C 89% 2.0 mph ENE3.2 kmh ENE 3.0 mph4.8 kmh 29.85 in1010.8 mb 0.00 in0.0 mm 0.00 in0.0 mm 0.01 in0.3 mm
04:29 AM 48.4°F9.1°C 45.3°F7.4°C 89% 2.0 mph ENE3.2 kmh ENE 3.0 mph4.8 kmh 29.85 in1010.8 mb 0.00 in0.0 mm 0.00 in0.0 mm 0.01 in0.3 mm
04:34 AM 48.4°F9.1°C 45.3°F7.4°C 89% 2.0 mph ENE3.2 kmh ENE 4.0 mph6.4 kmh 29.85 in1010.8 mb 0.00 in0.0 mm 0.00 in0.0 mm 0.01 in0.3 mm
04:39 AM 48.4°F9.1°C 45.6°F7.6°C 90% 1.0 mph ENE1.6 kmh ENE 4.0 mph6.4 kmh 29.85 in1010.8 mb 0.00 in0.0 mm 0.00 in0.0 mm 0.01 in0.3 mm
04:44 AM 48.4°F9.1°C 45.3°F7.4°C 89% 2.0 mph ENE3.2 kmh ENE 4.0 mph6.4 kmh 29.85 in1010.8 mb 0.00 in0.0 mm 0.00 in0.0 mm 0.01 in0.3 mm
04:49 AM 48.4°F9.1°C 45.3°F7.4°C 89% 1.0 mph ENE1.6 kmh ENE 4.0 mph6.4 kmh 29.85 in1010.8 mb 0.00 in0.0 mm 0.00 in0.0 mm 0.01 in0.3 mm
04:54 AM 48.4°F9.1°C 45.3°F7.4°C 89% Calm Calm -- 29.85 in1010.8 mb 0.00 in0.0 mm 0.00 in0.0 mm 0.01 in0.3 mm
04:59 AM 48.4°F9.1°C 45.3°F7.4°C 89% Calm Calm -- 29.85 in1010.8 mb 0.00 in0.0 mm 0.00 in0.0 mm 0.01 in0.3 mm
05:04 AM 48.5°F9.2°C 45.4°F7.4°C 89% Calm Calm -- 29.85 in1010.8 mb 0.00 in0.0 mm 0.00 in0.0 mm 0.01 in0.3 mm
05:09 AM 48.5°F9.2°C 45.4°F7.4°C 89% Calm Calm -- 29.85 in1010.8 mb 0.00 in0.0 mm 0.00 in0.0 mm 0.01 in0.3 mm
05:14 AM 48.5°F9.2°C 45.4°F7.4°C 89% Calm Calm -- 29.85 in1010.8 mb 0.00 in0.0 mm 0.00 in0.0 mm 0.01 in0.3 mm
05:19 AM 48.5°F9.2°C 45.4°F7.4°C 89% Calm Calm -- 29.85 in1010.8 mb 0.00 in0.0 mm 0.00 in0.0 mm 0.01 in0.3 mm
05:24 AM 48.5°F9.2°C 45.7°F7.6°C 90% Calm Calm -- 29.85 in1010.8 mb 0.00 in0.0 mm 0.00 in0.0 mm 0.01 in0.3 mm
05:29 AM 48.5°F9.2°C 45.7°F7.6°C 90% Calm Calm -- 29.85 in1010.8 mb 0.00 in0.0 mm 0.00 in0.0 mm 0.01 in0.3 mm
05:34 AM 48.5°F9.2°C 45.7°F7.6°C 90% Calm Calm -- 29.85 in1010.8 mb 0.00 in0.0 mm 0.00 in0.0 mm 0.01 in0.3 mm
05:39 AM 48.5°F9.2°C 45.7°F7.6°C 90% Calm Calm -- 29.85 in1010.8 mb 0.00 in0.0 mm 0.00 in0.0 mm 0.01 in0.3 mm
05:44 AM 48.6°F9.2°C 45.8°F7.7°C 90% Calm Calm -- 29.85 in1010.8 mb 0.00 in0.0 mm 0.00 in0.0 mm 0.01 in0.3 mm
05:49 AM 48.6°F9.2°C 45.8°F7.7°C 90% Calm Calm -- 29.85 in1010.8 mb 0.00 in0.0 mm 0.00 in0.0 mm 0.01 in0.3 mm
05:54 AM 48.6°F9.2°C 45.5°F7.5°C 89% Calm Calm -- 29.85 in1010.8 mb 0.00 in0.0 mm 0.00 in0.0 mm 0.01 in0.3 mm
05:59 AM 48.6°F9.2°C 45.8°F7.7°C 90% Calm Calm -- 29.85 in1010.8 mb 0.00 in0.0 mm 0.00 in0.0 mm 0.01 in0.3 mm
06:04 AM 48.6°F9.2°C 45.8°F7.7°C 90% Calm Calm -- 29.85 in1010.8 mb 0.00 in0.0 mm 0.00 in0.0 mm 0.01 in0.3 mm
06:09 AM 48.6°F9.2°C 45.5°F7.5°C 89% Calm Calm 1.0 mph1.6 kmh 29.85 in1010.8 mb 0.00 in0.0 mm 0.00 in0.0 mm 0.01 in0.3 mm
06:14 AM 48.7°F9.3°C 45.9°F7.7°C 90% Calm Calm -- 29.86 in1011.2 mb 0.00 in0.0 mm 0.00 in0.0 mm 0.01 in0.3 mm
06:19 AM 48.7°F9.3°C 45.6°F7.6°C 89% Calm Calm -- 29.85 in1010.8 mb 0.00 in0.0 mm 0.00 in0.0 mm 0.01 in0.3 mm
06:24 AM 48.8°F9.3°C 46.0°F7.8°C 90% Calm Calm -- 29.86 in1011.2 mb 0.00 in0.0 mm 0.00 in0.0 mm 0.01 in0.3 mm
06:29 AM 48.8°F9.3°C 46.0°F7.8°C 90% 1.0 mph NE1.6 kmh NE 3.0 mph4.8 kmh 29.86 in1011.2 mb 0.00 in0.0 mm 0.00 in0.0 mm 0.01 in0.3 mm
06:34 AM 48.8°F9.3°C 46.0°F7.8°C 90% Calm Calm -- 29.86 in1011.2 mb 0.00 in0.0 mm 0.00 in0.0 mm 0.01 in0.3 mm
06:39 AM 48.9°F9.4°C 46.1°F7.8°C 90% Calm Calm -- 29.86 in1011.2 mb 0.00 in0.0 mm 0.00 in0.0 mm 0.01 in0.3 mm
06:44 AM 49.0°F9.4°C 46.2°F7.9°C 90% Calm Calm 2.0 mph3.2 kmh 29.86 in1011.2 mb 0.00 in0.0 mm 0.00 in0.0 mm 0.01 in0.3 mm
06:49 AM 49.1°F9.5°C 46.3°F7.9°C 90% Calm Calm -- 29.86 in1011.2 mb 0.00 in0.0 mm 0.00 in0.0 mm 0.01 in0.3 mm
06:54 AM 49.2°F9.6°C 46.4°F8.0°C 90% Calm Calm 1.0 mph1.6 kmh 29.86 in1011.2 mb 0.00 in0.0 mm 0.00 in0.0 mm 0.01 in0.3 mm
06:59 AM 49.3°F9.6°C 46.5°F8.1°C 90% Calm Calm 1.0 mph1.6 kmh 29.86 in1011.2 mb 0.00 in0.0 mm 0.00 in0.0 mm 0.01 in0.3 mm
07:04 AM 49.3°F9.6°C 46.5°F8.1°C 90% Calm Calm -- 29.86 in1011.2 mb 0.00 in0.0 mm 0.00 in0.0 mm 0.01 in0.3 mm
07:09 AM 49.4°F9.7°C 46.6°F8.1°C 90% Calm Calm -- 29.86 in1011.2 mb 0.00 in0.0 mm 0.00 in0.0 mm 0.01 in0.3 mm
07:14 AM 49.5°F9.7°C 46.7°F8.2°C 90% Calm Calm -- 29.86 in1011.2 mb 0.00 in0.0 mm 0.00 in0.0 mm 0.01 in0.3 mm
07:19 AM 49.6°F9.8°C 46.8°F8.2°C 90% Calm Calm -- 29.86 in1011.2 mb 0.00 in0.0 mm 0.00 in0.0 mm 0.01 in0.3 mm
07:24 AM 49.7°F9.8°C 46.9°F8.3°C 90% Calm Calm -- 29.86 in1011.2 mb 0.00 in0.0 mm 0.00 in0.0 mm 0.01 in0.3 mm
07:29 AM 49.7°F9.8°C 46.9°F8.3°C 90% 1.0 mph NW1.6 kmh NW 1.0 mph1.6 kmh 29.86 in1011.2 mb 0.00 in0.0 mm 0.00 in0.0 mm 0.01 in0.3 mm
07:34 AM 49.9°F9.9°C 47.1°F8.4°C 90% 2.0 mph NW3.2 kmh NW 2.0 mph3.2 kmh 29.86 in1011.2 mb 0.00 in0.0 mm 0.00 in0.0 mm 0.01 in0.3 mm
07:39 AM 49.9°F9.9°C 47.1°F8.4°C 90% 1.0 mph W1.6 kmh W 2.0 mph3.2 kmh 29.86 in1011.2 mb 0.00 in0.0 mm 0.00 in0.0 mm 0.01 in0.3 mm
07:44 AM 50.0°F10.0°C 47.2°F8.4°C 90% Calm Calm 2.0 mph3.2 kmh 29.86 in1011.2 mb 0.00 in0.0 mm 0.00 in0.0 mm 0.01 in0.3 mm
07:49 AM 50.1°F10.1°C 47.3°F8.5°C 90% Calm Calm 3.0 mph4.8 kmh 29.86 in1011.2 mb 0.00 in0.0 mm 0.00 in0.0 mm 0.01 in0.3 mm
07:54 AM 50.2°F10.1°C 47.4°F8.6°C 90% Calm Calm -- 29.86 in1011.2 mb 0.00 in0.0 mm 0.00 in0.0 mm 0.01 in0.3 mm
07:59 AM 50.4°F10.2°C 47.6°F8.7°C 90% 1.0 mph NW1.6 kmh NW 2.0 mph3.2 kmh 29.87 in1011.5 mb 0.00 in0.0 mm 0.00 in0.0 mm 0.01 in0.3 mm
08:04 AM 50.4°F10.2°C 47.6°F8.7°C 90% 2.0 mph WNW3.2 kmh WNW 3.0 mph4.8 kmh 29.87 in1011.5 mb 0.00 in0.0 mm 0.00 in0.0 mm 0.01 in0.3 mm
08:09 AM 50.5°F10.3°C 47.7°F8.7°C 90% 4.0 mph NW6.4 kmh NW 5.0 mph8.0 kmh 29.87 in1011.5 mb 0.00 in0.0 mm 0.00 in0.0 mm 0.01 in0.3 mm
08:14 AM 50.2°F10.1°C 47.4°F8.6°C 90% 10.0 mph W16.1 kmh W 10.0 mph16.1 kmh 29.87 in1011.5 mb 0.00 in0.0 mm 0.00 in0.0 mm 0.01 in0.3 mm
08:19 AM 49.0°F9.4°C 45.9°F7.7°C 89% 7.0 mph NW11.3 kmh NW 11.0 mph17.7 kmh 29.88 in1011.9 mb 0.00 in0.0 mm 0.00 in0.0 mm 0.01 in0.3 mm
08:24 AM 47.5°F8.6°C 44.4°F6.9°C 89% 4.0 mph WNW6.4 kmh WNW 11.0 mph17.7 kmh 29.88 in1011.9 mb 0.00 in0.0 mm 0.00 in0.0 mm 0.01 in0.3 mm
08:29 AM 46.5°F8.1°C 43.4°F6.3°C 89% 1.0 mph WNW1.6 kmh WNW 2.0 mph3.2 kmh 29.88 in1011.9 mb 0.00 in0.0 mm 0.00 in0.0 mm 0.01 in0.3 mm
08:34 AM 45.9°F7.7°C 42.8°F6.0°C 89% 3.0 mph NW4.8 kmh NW 8.0 mph12.9 kmh 29.88 in1011.9 mb 0.00 in0.0 mm 0.00 in0.0 mm 0.01 in0.3 mm
08:39 AM 45.6°F7.6°C 42.5°F5.8°C 89% 2.0 mph NW3.2 kmh NW 8.0 mph12.9 kmh 29.88 in1011.9 mb 0.00 in0.0 mm 0.00 in0.0 mm 0.01 in0.3 mm
08:44 AM 45.3°F7.4°C 42.5°F5.8°C 90% 2.0 mph W3.2 kmh W 8.0 mph12.9 kmh 29.88 in1011.9 mb 0.00 in0.0 mm 0.00 in0.0 mm 0.01 in0.3 mm
08:49 AM 45.3°F7.4°C 42.5°F5.8°C 90% 3.0 mph NW4.8 kmh NW 7.0 mph11.3 kmh 29.88 in1011.9 mb 0.00 in0.0 mm 0.00 in0.0 mm 0.01 in0.3 mm
08:54 AM 45.3°F7.4°C 42.5°F5.8°C 90% 4.0 mph WNW6.4 kmh WNW 9.0 mph14.5 kmh 29.88 in1011.9 mb 0.00 in0.0 mm 0.00 in0.0 mm 0.01 in0.3 mm
08:59 AM 45.5°F7.5°C 42.7°F5.9°C 90% 6.0 mph NW9.7 kmh NW 10.0 mph16.1 kmh 29.88 in1011.9 mb 0.00 in0.0 mm 0.00 in0.0 mm 0.01 in0.3 mm
09:04 AM 45.5°F7.5°C 42.7°F5.9°C 90% 2.0 mph N3.2 kmh N 10.0 mph16.1 kmh 29.88 in1011.9 mb 0.00 in0.0 mm 0.00 in0.0 mm 0.01 in0.3 mm
09:09 AM 45.4°F7.4°C 42.6°F5.9°C 90% 3.0 mph NNW4.8 kmh NNW 10.0 mph16.1 kmh 29.88 in1011.9 mb 0.00 in0.0 mm 0.00 in0.0 mm 0.01 in0.3 mm
09:14 AM 45.5°F7.5°C 42.7°F5.9°C 90% 6.0 mph NNW9.7 kmh NNW 10.0 mph16.1 kmh 29.88 in1011.9 mb 0.00 in0.0 mm 0.00 in0.0 mm 0.01 in0.3 mm
09:19 AM 45.6°F7.6°C 42.8°F6.0°C 90% 4.0 mph NNW6.4 kmh NNW 8.0 mph12.9 kmh 29.88 in1011.9 mb 0.00 in0.0 mm 0.00 in0.0 mm 0.01 in0.3 mm
09:24 AM 45.9°F7.7°C 42.8°F6.0°C 89% 3.0 mph NW4.8 kmh NW 8.0 mph12.9 kmh 29.88 in1011.9 mb 0.00 in0.0 mm 0.00 in0.0 mm 0.01 in0.3 mm
09:29 AM 46.0°F7.8°C 42.9°F6.1°C 89% 5.0 mph NNW8.0 kmh NNW 8.0 mph12.9 kmh 29.89 in1012.2 mb 0.00 in0.0 mm 0.00 in0.0 mm 0.01 in0.3 mm
09:34 AM 46.3°F7.9°C 43.5°F6.4°C 90% 5.0 mph NNW8.0 kmh NNW 8.0 mph12.9 kmh 29.89 in1012.2 mb 0.00 in0.0 mm 0.00 in0.0 mm 0.01 in0.3 mm
09:39 AM 46.4°F8.0°C 43.3°F6.3°C 89% Calm Calm -- 29.89 in1012.2 mb 0.00 in0.0 mm 0.00 in0.0 mm 0.01 in0.3 mm
09:44 AM 46.6°F8.1°C 43.8°F6.6°C 90% Calm Calm -- 29.89 in1012.2 mb 0.00 in0.0 mm 0.00 in0.0 mm 0.01 in0.3 mm
09:49 AM 46.8°F8.2°C 44.0°F6.7°C 90% Calm Calm -- 29.89 in1012.2 mb 0.00 in0.0 mm 0.00 in0.0 mm 0.01 in0.3 mm
09:54 AM 47.2°F8.4°C 44.1°F6.7°C 89% Calm Calm -- 29.89 in1012.2 mb 0.00 in0.0 mm 0.00 in0.0 mm 0.01 in0.3 mm
09:59 AM 47.4°F8.6°C 44.6°F7.0°C 90% Calm Calm -- 29.89 in1012.2 mb 0.00 in0.0 mm 0.00 in0.0 mm 0.01 in0.3 mm
10:04 AM 47.5°F8.6°C 44.7°F7.1°C 90% Calm Calm -- 29.89 in1012.2 mb 0.00 in0.0 mm 0.00 in0.0 mm 0.01 in0.3 mm
10:09 AM 47.9°F8.8°C 45.1°F7.3°C 90% Calm Calm -- 29.89 in1012.2 mb 0.00 in0.0 mm 0.00 in0.0 mm 0.01 in0.3 mm
10:14 AM 48.1°F8.9°C 45.0°F7.2°C 89% Calm Calm 3.0 mph4.8 kmh 29.89 in1012.2 mb 0.00 in0.0 mm 0.00 in0.0 mm 0.01 in0.3 mm
10:19 AM 48.3°F9.1°C 45.2°F7.3°C 89% Calm Calm 5.0 mph8.0 kmh 29.89 in1012.2 mb 0.00 in0.0 mm 0.00 in0.0 mm 0.01 in0.3 mm
10:24 AM 48.4°F9.1°C 45.3°F7.4°C 89% Calm Calm 5.0 mph8.0 kmh 29.89 in1012.2 mb 0.00 in0.0 mm 0.00 in0.0 mm 0.01 in0.3 mm
10:29 AM 48.6°F9.2°C 45.5°F7.5°C 89% 2.0 mph NW3.2 kmh NW 5.0 mph8.0 kmh 29.89 in1012.2 mb 0.00 in0.0 mm 0.00 in0.0 mm 0.01 in0.3 mm
10:34 AM 48.5°F9.2°C 45.4°F7.4°C 89% 4.0 mph NW6.4 kmh NW 7.0 mph11.3 kmh 29.90 in1012.5 mb 0.00 in0.0 mm 0.00 in0.0 mm 0.01 in0.3 mm
10:39 AM 48.1°F8.9°C 45.3°F7.4°C 90% Calm Calm 8.0 mph12.9 kmh 29.90 in1012.5 mb 0.00 in0.0 mm 0.00 in0.0 mm 0.01 in0.3 mm
10:44 AM 47.6°F8.7°C 44.5°F6.9°C 89% 5.0 mph NW8.0 kmh NW 9.0 mph14.5 kmh 29.90 in1012.5 mb 0.00 in0.0 mm 0.00 in0.0 mm 0.01 in0.3 mm
10:49 AM 46.7°F8.2°C 43.9°F6.6°C 90% 3.0 mph WNW4.8 kmh WNW 13.0 mph20.9 kmh 29.90 in1012.5 mb 0.00 in0.0 mm 0.00 in0.0 mm 0.01 in0.3 mm
10:54 AM 46.4°F8.0°C 43.3°F6.3°C 89% 1.0 mph NW1.6 kmh NW 4.0 mph6.4 kmh 29.90 in1012.5 mb 0.00 in0.0 mm 0.00 in0.0 mm 0.01 in0.3 mm
10:59 AM 46.0°F7.8°C 43.2°F6.2°C 90% 3.0 mph NW4.8 kmh NW 11.0 mph17.7 kmh 29.90 in1012.5 mb 0.00 in0.0 mm 0.00 in0.0 mm 0.01 in0.3 mm
11:04 AM 45.3°F7.4°C 42.5°F5.8°C 90% 8.0 mph NE12.9 kmh NE 12.0 mph19.3 kmh 29.90 in1012.5 mb 0.00 in0.0 mm 0.00 in0.0 mm 0.01 in0.3 mm
11:09 AM 45.0°F7.2°C 42.0°F5.6°C 89% 5.0 mph NNE8.0 kmh NNE 12.0 mph19.3 kmh 29.90 in1012.5 mb 0.00 in0.0 mm 0.00 in0.0 mm 0.01 in0.3 mm
11:14 AM 44.8°F7.1°C 42.1°F5.6°C 90% 8.0 mph N12.9 kmh N 13.0 mph20.9 kmh 29.90 in1012.5 mb 0.00 in0.0 mm 0.00 in0.0 mm 0.01 in0.3 mm
11:19 AM 44.7°F7.1°C 42.0°F5.6°C 90% 4.0 mph N6.4 kmh N 13.0 mph20.9 kmh 29.90 in1012.5 mb 0.00 in0.0 mm 0.00 in0.0 mm 0.01 in0.3 mm
11:24 AM 44.7°F7.1°C 42.0°F5.6°C 90% 9.0 mph N14.5 kmh N 13.0 mph20.9 kmh 29.91 in1012.9 mb 0.00 in0.0 mm 0.00 in0.0 mm 0.01 in0.3 mm
11:29 AM 44.5°F6.9°C 41.5°F5.3°C 89% 2.0 mph NNE3.2 kmh NNE 13.0 mph20.9 kmh 29.91 in1012.9 mb 0.00 in0.0 mm 0.00 in0.0 mm 0.01 in0.3 mm
11:34 AM 44.4°F6.9°C 41.4°F5.2°C 89% 6.0 mph NW9.7 kmh NW 12.0 mph19.3 kmh 29.91 in1012.9 mb 0.00 in0.0 mm 0.00 in0.0 mm 0.01 in0.3 mm
11:39 AM 44.2°F6.8°C 41.2°F5.1°C 89% Calm Calm 12.0 mph19.3 kmh 29.91 in1012.9 mb 0.00 in0.0 mm 0.00 in0.0 mm 0.01 in0.3 mm
11:44 AM 44.2°F6.8°C 41.2°F5.1°C 89% 1.0 mph NNW1.6 kmh NNW 12.0 mph19.3 kmh 29.91 in1012.9 mb 0.00 in0.0 mm 0.00 in0.0 mm 0.01 in0.3 mm
11:49 AM 44.2°F6.8°C 41.2°F5.1°C 89% 2.0 mph N3.2 kmh N 12.0 mph19.3 kmh 29.91 in1012.9 mb 0.00 in0.0 mm 0.00 in0.0 mm 0.01 in0.3 mm
11:54 AM 44.3°F6.8°C 41.3°F5.2°C 89% 4.0 mph NNW6.4 kmh NNW 12.0 mph19.3 kmh 29.91 in1012.9 mb 0.00 in0.0 mm 0.00 in0.0 mm 0.01 in0.3 mm
11:59 AM 44.1°F6.7°C 41.4°F5.2°C 90% Calm Calm 12.0 mph19.3 kmh 29.91 in1012.9 mb 0.00 in0.0 mm 0.00 in0.0 mm 0.01 in0.3 mm
12:04 PM 44.2°F6.8°C 41.2°F5.1°C 89% 4.0 mph NNE6.4 kmh NNE 13.0 mph20.9 kmh 29.91 in1012.9 mb 0.00 in0.0 mm 0.00 in0.0 mm 0.01 in0.3 mm
12:09 PM 44.0°F6.7°C 41.3°F5.2°C 90% 5.0 mph N8.0 kmh N 13.0 mph20.9 kmh 29.91 in1012.9 mb 0.00 in0.0 mm 0.00 in0.0 mm 0.01 in0.3 mm
12:14 PM 44.3°F6.8°C 41.3°F5.2°C 89% Calm Calm 13.0 mph20.9 kmh 29.91 in1012.9 mb 0.00 in0.0 mm 0.00 in0.0 mm 0.01 in0.3 mm
12:19 PM 44.5°F6.9°C 41.5°F5.3°C 89% 1.0 mph N1.6 kmh N 3.0 mph4.8 kmh 29.91 in1012.9 mb 0.00 in0.0 mm 0.00 in0.0 mm 0.01 in0.3 mm
12:24 PM 44.8°F7.1°C 42.1°F5.6°C 90% 1.0 mph NNE1.6 kmh NNE 1.0 mph1.6 kmh 29.91 in1012.9 mb 0.00 in0.0 mm 0.00 in0.0 mm 0.01 in0.3 mm
12:29 PM 44.9°F7.2°C 41.9°F5.5°C 89% Calm Calm 1.0 mph1.6 kmh 29.91 in1012.9 mb 0.00 in0.0 mm 0.00 in0.0 mm 0.01 in0.3 mm
12:34 PM 45.0°F7.2°C 42.0°F5.6°C 89% 1.0 mph NNE1.6 kmh NNE 4.0 mph6.4 kmh 29.91 in1012.9 mb 0.00 in0.0 mm 0.00 in0.0 mm 0.01 in0.3 mm
12:39 PM 45.2°F7.3°C 42.2°F5.7°C 89% 1.0 mph NNW1.6 kmh NNW 4.0 mph6.4 kmh 29.91 in1012.9 mb 0.00 in0.0 mm 0.00 in0.0 mm 0.01 in0.3 mm
12:44 PM 45.3°F7.4°C 42.5°F5.8°C 90% 2.0 mph N3.2 kmh N 4.0 mph6.4 kmh 29.91 in1012.9 mb 0.00 in0.0 mm 0.00 in0.0 mm 0.01 in0.3 mm
12:49 PM 45.4°F7.4°C 42.6°F5.9°C 90% 2.0 mph NW3.2 kmh NW 14.0 mph22.5 kmh 29.90 in1012.5 mb 0.00 in0.0 mm 0.00 in0.0 mm 0.01 in0.3 mm
12:54 PM 45.5°F7.5°C 42.7°F5.9°C 90% 4.0 mph NNW6.4 kmh NNW 14.0 mph22.5 kmh 29.90 in1012.5 mb 0.00 in0.0 mm 0.00 in0.0 mm 0.01 in0.3 mm
12:59 PM 45.5°F7.5°C 42.7°F5.9°C 90% 7.0 mph NE11.3 kmh NE 14.0 mph22.5 kmh 29.90 in1012.5 mb 0.00 in0.0 mm 0.00 in0.0 mm 0.01 in0.3 mm
01:04 PM 45.7°F7.6°C 42.9°F6.1°C 90% 3.0 mph NW4.8 kmh NW 14.0 mph22.5 kmh 29.90 in1012.5 mb 0.00 in0.0 mm 0.00 in0.0 mm 0.01 in0.3 mm
01:09 PM 45.8°F7.7°C 42.7°F5.9°C 89% 2.0 mph NW3.2 kmh NW 10.0 mph16.1 kmh 29.90 in1012.5 mb 0.00 in0.0 mm 0.00 in0.0 mm 0.01 in0.3 mm
01:14 PM 45.9°F7.7°C 42.8°F6.0°C 89% 6.0 mph NE9.7 kmh NE 10.0 mph16.1 kmh 29.91 in1012.9 mb 0.00 in0.0 mm 0.00 in0.0 mm 0.01 in0.3 mm
01:19 PM 46.0°F7.8°C 43.2°F6.2°C 90% 5.0 mph NW8.0 kmh NW 11.0 mph17.7 kmh 29.91 in1012.9 mb 0.00 in0.0 mm 0.00 in0.0 mm 0.01 in0.3 mm
01:24 PM 46.2°F7.9°C 43.4°F6.3°C 90% 3.0 mph NW4.8 kmh NW 11.0 mph17.7 kmh 29.91 in1012.9 mb 0.00 in0.0 mm 0.00 in0.0 mm 0.01 in0.3 mm
01:29 PM 46.4°F8.0°C 43.6°F6.4°C 90% 4.0 mph NW6.4 kmh NW 13.0 mph20.9 kmh 29.91 in1012.9 mb 0.00 in0.0 mm 0.00 in0.0 mm 0.01 in0.3 mm
01:34 PM 46.6°F8.1°C 43.8°F6.6°C 90% 4.0 mph NW6.4 kmh NW 13.0 mph20.9 kmh 29.91 in1012.9 mb 0.00 in0.0 mm 0.00 in0.0 mm 0.01 in0.3 mm
01:39 PM 46.7°F8.2°C 43.9°F6.6°C 90% 2.0 mph NW3.2 kmh NW 13.0 mph20.9 kmh 29.91 in1012.9 mb 0.00 in0.0 mm 0.00 in0.0 mm 0.01 in0.3 mm
01:44 PM 47.3°F8.5°C 44.2°F6.8°C 89% 4.0 mph NW6.4 kmh NW 13.0 mph20.9 kmh 29.91 in1012.9 mb 0.00 in0.0 mm 0.00 in0.0 mm 0.01 in0.3 mm
01:49 PM 47.7°F8.7°C 44.9°F7.2°C 90% 4.0 mph NNE6.4 kmh NNE 12.0 mph19.3 kmh 29.91 in1012.9 mb 0.00 in0.0 mm 0.00 in0.0 mm 0.01 in0.3 mm
01:54 PM 48.1°F8.9°C 45.3°F7.4°C 90% 6.0 mph NNW9.7 kmh NNW 12.0 mph19.3 kmh 29.91 in1012.9 mb 0.00 in0.0 mm 0.00 in0.0 mm 0.01 in0.3 mm
01:59 PM 48.3°F9.1°C 45.2°F7.3°C 89% 2.0 mph N3.2 kmh N 10.0 mph16.1 kmh 29.91 in1012.9 mb 0.00 in0.0 mm 0.00 in0.0 mm 0.01 in0.3 mm
02:04 PM 48.7°F9.3°C 45.6°F7.6°C 89% 5.0 mph NW8.0 kmh NW 13.0 mph20.9 kmh 29.91 in1012.9 mb 0.00 in0.0 mm 0.00 in0.0 mm 0.01 in0.3 mm
02:09 PM 48.8°F9.3°C 45.7°F7.6°C 89% 11.0 mph NW17.7 kmh NW 13.0 mph20.9 kmh 29.91 in1012.9 mb 0.00 in0.0 mm 0.00 in0.0 mm 0.01 in0.3 mm
02:14 PM 50.0°F10.0°C 46.9°F8.3°C 89% 3.0 mph NE4.8 kmh NE 13.0 mph20.9 kmh 29.91 in1012.9 mb 0.00 in0.0 mm 0.00 in0.0 mm 0.01 in0.3 mm
02:19 PM 51.0°F10.6°C 47.9°F8.8°C 89% 7.0 mph NNE11.3 kmh NNE 13.0 mph20.9 kmh 29.91 in1012.9 mb 0.00 in0.0 mm 0.00 in0.0 mm 0.01 in0.3 mm
02:24 PM 51.1°F10.6°C 47.0°F8.3°C 86% 8.0 mph NE12.9 kmh NE 12.0 mph19.3 kmh 29.91 in1012.9 mb 0.00 in0.0 mm 0.00 in0.0 mm 0.01 in0.3 mm
02:29 PM 52.1°F11.2°C 47.7°F8.7°C 85% 7.0 mph NNE11.3 kmh NNE 15.0 mph24.1 kmh 29.91 in1012.9 mb 0.00 in0.0 mm 0.00 in0.0 mm 0.01 in0.3 mm
02:34 PM 52.2°F11.2°C 47.5°F8.6°C 84% 5.0 mph NW8.0 kmh NW 15.0 mph24.1 kmh 29.91 in1012.9 mb 0.00 in0.0 mm 0.00 in0.0 mm 0.01 in0.3 mm
02:39 PM 52.5°F11.4°C 48.1°F8.9°C 85% 5.0 mph NW8.0 kmh NW 15.0 mph24.1 kmh 29.91 in1012.9 mb 0.00 in0.0 mm 0.00 in0.0 mm 0.01 in0.3 mm
02:44 PM 52.7°F11.5°C 47.6°F8.7°C 83% 4.0 mph NW6.4 kmh NW 15.0 mph24.1 kmh 29.91 in1012.9 mb 0.00 in0.0 mm 0.00 in0.0 mm 0.01 in0.3 mm
02:49 PM 52.2°F11.2°C 47.1°F8.4°C 83% 7.0 mph N11.3 kmh N 15.0 mph24.1 kmh 29.91 in1012.9 mb 0.00 in0.0 mm 0.00 in0.0 mm 0.01 in0.3 mm
02:54 PM 52.4°F11.3°C 47.3°F8.5°C 83% 6.0 mph NW9.7 kmh NW 15.0 mph24.1 kmh 29.91 in1012.9 mb 0.00 in0.0 mm 0.00 in0.0 mm 0.01 in0.3 mm
02:59 PM 52.9°F11.6°C 47.1°F8.4°C 81% 11.0 mph NE17.7 kmh NE 15.0 mph24.1 kmh 29.91 in1012.9 mb 0.00 in0.0 mm 0.00 in0.0 mm 0.01 in0.3 mm
03:04 PM 53.2°F11.8°C 46.8°F8.2°C 79% 8.0 mph NE12.9 kmh NE 16.0 mph25.7 kmh 29.91 in1012.9 mb 0.00 in0.0 mm 0.00 in0.0 mm 0.01 in0.3 mm
03:09 PM 53.5°F11.9°C 47.0°F8.3°C 79% 7.0 mph NE11.3 kmh NE 16.0 mph25.7 kmh 29.91 in1012.9 mb 0.00 in0.0 mm 0.00 in0.0 mm 0.01 in0.3 mm
03:14 PM 53.3°F11.8°C 46.5°F8.1°C 78% 6.0 mph NNE9.7 kmh NNE 16.0 mph25.7 kmh 29.91 in1012.9 mb 0.00 in0.0 mm 0.00 in0.0 mm 0.01 in0.3 mm
03:19 PM 52.8°F11.6°C 45.7°F7.6°C 77% 6.0 mph NNW9.7 kmh NNW 16.0 mph25.7 kmh 29.91 in1012.9 mb 0.00 in0.0 mm 0.00 in0.0 mm 0.01 in0.3 mm
03:24 PM 52.2°F11.2°C 45.4°F7.4°C 78% 8.0 mph NE12.9 kmh NE 15.0 mph24.1 kmh 29.91 in1012.9 mb 0.00 in0.0 mm 0.00 in0.0 mm 0.01 in0.3 mm
03:29 PM 52.4°F11.3°C 46.0°F7.8°C 79% 9.0 mph NE14.5 kmh NE 17.0 mph27.4 kmh 29.91 in1012.9 mb 0.00 in0.0 mm 0.00 in0.0 mm 0.01 in0.3 mm
03:34 PM 52.0°F11.1°C 45.3°F7.4°C 78% 8.0 mph NW12.9 kmh NW 17.0 mph27.4 kmh 29.91 in1012.9 mb 0.00 in0.0 mm 0.00 in0.0 mm 0.01 in0.3 mm
03:39 PM 51.6°F10.9°C 45.2°F7.3°C 79% 8.0 mph N12.9 kmh N 17.0 mph27.4 kmh 29.91 in1012.9 mb 0.00 in0.0 mm 0.00 in0.0 mm 0.01 in0.3 mm
03:44 PM 51.3°F10.7°C 45.3°F7.4°C 80% 7.0 mph NE11.3 kmh NE 17.0 mph27.4 kmh 29.91 in1012.9 mb 0.00 in0.0 mm 0.00 in0.0 mm 0.01 in0.3 mm
03:49 PM 51.4°F10.8°C 45.0°F7.2°C 79% 8.0 mph NNE12.9 kmh NNE 15.0 mph24.1 kmh 29.91 in1012.9 mb 0.00 in0.0 mm 0.00 in0.0 mm 0.01 in0.3 mm
03:54 PM 51.7°F10.9°C 45.6°F7.6°C 80% 11.0 mph N17.7 kmh N 15.0 mph24.1 kmh 29.92 in1013.2 mb 0.00 in0.0 mm 0.00 in0.0 mm 0.01 in0.3 mm
03:59 PM 51.5°F10.8°C 45.1°F7.3°C 79% 5.0 mph NW8.0 kmh NW 14.0 mph22.5 kmh 29.92 in1013.2 mb 0.00 in0.0 mm 0.00 in0.0 mm 0.01 in0.3 mm
04:04 PM 51.3°F10.7°C 45.3°F7.4°C 80% 4.0 mph NW6.4 kmh NW 14.0 mph22.5 kmh 29.92 in1013.2 mb 0.00 in0.0 mm 0.00 in0.0 mm 0.01 in0.3 mm
04:09 PM 50.9°F10.5°C 44.2°F6.8°C 78% 8.0 mph NE12.9 kmh NE 12.0 mph19.3 kmh 29.92 in1013.2 mb 0.00 in0.0 mm 0.00 in0.0 mm 0.01 in0.3 mm
04:14 PM 50.8°F10.4°C 44.8°F7.1°C 80% 11.0 mph NE17.7 kmh NE 13.0 mph20.9 kmh 29.92 in1013.2 mb 0.00 in0.0 mm 0.00 in0.0 mm 0.01 in0.3 mm
04:19 PM 50.7°F10.4°C 44.3°F6.8°C 79% 5.0 mph NNE8.0 kmh NNE 13.0 mph20.9 kmh 29.92 in1013.2 mb 0.00 in0.0 mm 0.00 in0.0 mm 0.01 in0.3 mm
04:24 PM 50.6°F10.3°C 44.6°F7.0°C 80% 10.0 mph NE16.1 kmh NE 15.0 mph24.1 kmh 29.92 in1013.2 mb 0.00 in0.0 mm 0.00 in0.0 mm 0.01 in0.3 mm
04:29 PM 50.4°F10.2°C 43.7°F6.5°C 78% 8.0 mph NNE12.9 kmh NNE 15.0 mph24.1 kmh 29.92 in1013.2 mb 0.00 in0.0 mm 0.00 in0.0 mm 0.01 in0.3 mm
04:34 PM 50.1°F10.1°C 43.8°F6.6°C 79% 6.0 mph NNE9.7 kmh NNE 17.0 mph27.4 kmh 29.93 in1013.5 mb 0.00 in0.0 mm 0.00 in0.0 mm 0.01 in0.3 mm
04:39 PM 49.9°F9.9°C 43.9°F6.6°C 80% 5.0 mph ENE8.0 kmh ENE 17.0 mph27.4 kmh 29.93 in1013.5 mb 0.00 in0.0 mm 0.00 in0.0 mm 0.01 in0.3 mm
04:44 PM 49.8°F9.9°C 44.1°F6.7°C 81% 11.0 mph NE17.7 kmh NE 17.0 mph27.4 kmh 29.93 in1013.5 mb 0.00 in0.0 mm 0.00 in0.0 mm 0.01 in0.3 mm
04:49 PM 49.7°F9.8°C 43.7°F6.5°C 80% 6.0 mph NE9.7 kmh NE 17.0 mph27.4 kmh 29.93 in1013.5 mb 0.00 in0.0 mm 0.00 in0.0 mm 0.01 in0.3 mm
04:54 PM 49.2°F9.6°C 42.9°F6.1°C 79% 12.0 mph NE19.3 kmh NE 12.0 mph19.3 kmh 29.93 in1013.5 mb 0.00 in0.0 mm 0.00 in0.0 mm 0.01 in0.3 mm
04:59 PM 48.9°F9.4°C 42.6°F5.9°C 79% 5.0 mph NE8.0 kmh NE 13.0 mph20.9 kmh 29.93 in1013.5 mb 0.00 in0.0 mm 0.00 in0.0 mm 0.01 in0.3 mm
05:04 PM 48.8°F9.3°C 42.8°F6.0°C 80% 8.0 mph NNE12.9 kmh NNE 13.0 mph20.9 kmh 29.93 in1013.5 mb 0.00 in0.0 mm 0.00 in0.0 mm 0.01 in0.3 mm
05:09 PM 48.6°F9.2°C 42.6°F5.9°C 80% 8.0 mph NE12.9 kmh NE 13.0 mph20.9 kmh 29.93 in1013.5 mb 0.00 in0.0 mm 0.00 in0.0 mm 0.01 in0.3 mm
05:14 PM 49.0°F9.4°C 43.4°F6.3°C 81% 6.0 mph NE9.7 kmh NE 13.0 mph20.9 kmh 29.93 in1013.5 mb 0.00 in0.0 mm 0.00 in0.0 mm 0.01 in0.3 mm
05:19 PM 48.8°F9.3°C 42.8°F6.0°C 80% 3.0 mph N4.8 kmh N 10.0 mph16.1 kmh 29.93 in1013.5 mb 0.00 in0.0 mm 0.00 in0.0 mm 0.01 in0.3 mm
05:24 PM 48.9°F9.4°C 42.9°F6.1°C 80% 5.0 mph NE8.0 kmh NE 10.0 mph16.1 kmh 29.93 in1013.5 mb 0.00 in0.0 mm 0.00 in0.0 mm 0.01 in0.3 mm
05:29 PM 49.0°F9.4°C 43.4°F6.3°C 81% 8.0 mph NE12.9 kmh NE 12.0 mph19.3 kmh 29.93 in1013.5 mb 0.00 in0.0 mm 0.00 in0.0 mm 0.01 in0.3 mm
05:34 PM 48.9°F9.4°C 43.3°F6.3°C 81% 5.0 mph NE8.0 kmh NE 12.0 mph19.3 kmh 29.93 in1013.5 mb 0.00 in0.0 mm 0.00 in0.0 mm 0.01 in0.3 mm
05:39 PM 48.7°F9.3°C 42.7°F5.9°C 80% 2.0 mph N3.2 kmh N 12.0 mph19.3 kmh 29.93 in1013.5 mb 0.00 in0.0 mm 0.00 in0.0 mm 0.01 in0.3 mm
05:44 PM 48.7°F9.3°C 42.7°F5.9°C 80% 4.0 mph NE6.4 kmh NE 12.0 mph19.3 kmh 29.93 in1013.5 mb 0.00 in0.0 mm 0.00 in0.0 mm 0.01 in0.3 mm
05:49 PM 48.3°F9.1°C 42.3°F5.7°C 80% 6.0 mph NNE9.7 kmh NNE 12.0 mph19.3 kmh 29.93 in1013.5 mb 0.00 in0.0 mm 0.00 in0.0 mm 0.01 in0.3 mm
05:54 PM 48.0°F8.9°C 42.4°F5.8°C 81% 5.0 mph NE8.0 kmh NE 12.0 mph19.3 kmh 29.93 in1013.5 mb 0.00 in0.0 mm 0.00 in0.0 mm 0.01 in0.3 mm
05:59 PM 47.8°F8.8°C 42.2°F5.7°C 81% 7.0 mph ENE11.3 kmh ENE 10.0 mph16.1 kmh 29.92 in1013.2 mb 0.00 in0.0 mm 0.00 in0.0 mm 0.01 in0.3 mm
06:04 PM 47.5°F8.6°C 41.9°F5.5°C 81% 5.0 mph NE8.0 kmh NE 10.0 mph16.1 kmh 29.93 in1013.5 mb 0.00 in0.0 mm 0.00 in0.0 mm 0.01 in0.3 mm
06:09 PM 47.2°F8.4°C 41.6°F5.3°C 81% 7.0 mph NE11.3 kmh NE 9.0 mph14.5 kmh 29.92 in1013.2 mb 0.00 in0.0 mm 0.00 in0.0 mm 0.01 in0.3 mm
06:14 PM 47.0°F8.3°C 41.4°F5.2°C 81% 7.0 mph NE11.3 kmh NE 10.0 mph16.1 kmh 29.92 in1013.2 mb 0.00 in0.0 mm 0.00 in0.0 mm 0.01 in0.3 mm
06:19 PM 46.9°F8.3°C 41.3°F5.2°C 81% 3.0 mph ENE4.8 kmh ENE 10.0 mph16.1 kmh 29.92 in1013.2 mb 0.00 in0.0 mm 0.00 in0.0 mm 0.01 in0.3 mm
06:24 PM 46.8°F8.2°C 41.2°F5.1°C 81% 2.0 mph 3.2 kmh 10.0 mph16.1 kmh 29.92 in1013.2 mb 0.00 in0.0 mm 0.00 in0.0 mm 0.01 in0.3 mm
06:29 PM 46.7°F8.2°C 41.1°F5.1°C 81% 2.0 mph NE3.2 kmh NE 10.0 mph16.1 kmh 29.92 in1013.2 mb 0.00 in0.0 mm 0.00 in0.0 mm 0.01 in0.3 mm
06:34 PM 46.6°F8.1°C 41.0°F5.0°C 81% 3.0 mph NE4.8 kmh NE 8.0 mph12.9 kmh 29.92 in1013.2 mb 0.00 in0.0 mm 0.00 in0.0 mm 0.01 in0.3 mm
06:39 PM 46.5°F8.1°C 40.9°F4.9°C 81% 5.0 mph NE8.0 kmh NE 8.0 mph12.9 kmh 29.92 in1013.2 mb 0.00 in0.0 mm 0.00 in0.0 mm 0.01 in0.3 mm
06:44 PM 46.5°F8.1°C 40.9°F4.9°C 81% 3.0 mph ENE4.8 kmh ENE 5.0 mph8.0 kmh 29.92 in1013.2 mb 0.00 in0.0 mm 0.00 in0.0 mm 0.01 in0.3 mm
06:49 PM 46.4°F8.0°C 40.8°F4.9°C 81% 2.0 mph ENE3.2 kmh ENE 5.0 mph8.0 kmh 29.92 in1013.2 mb 0.00 in0.0 mm 0.00 in0.0 mm 0.01 in0.3 mm
06:54 PM 46.3°F7.9°C 40.7°F4.8°C 81% 3.0 mph ENE4.8 kmh ENE 6.0 mph9.7 kmh 29.92 in1013.2 mb 0.00 in0.0 mm 0.00 in0.0 mm 0.01 in0.3 mm
06:59 PM 46.2°F7.9°C 40.3°F4.6°C 80% 4.0 mph NE6.4 kmh NE 8.0 mph12.9 kmh 29.93 in1013.5 mb 0.00 in0.0 mm 0.00 in0.0 mm 0.01 in0.3 mm
07:04 PM 46.1°F7.8°C 40.2°F4.6°C 80% 4.0 mph NE6.4 kmh NE 8.0 mph12.9 kmh 29.93 in1013.5 mb 0.00 in0.0 mm 0.00 in0.0 mm 0.01 in0.3 mm
07:09 PM 46.0°F7.8°C 40.1°F4.5°C 80% 3.0 mph NE4.8 kmh NE 8.0 mph12.9 kmh 29.93 in1013.5 mb 0.00 in0.0 mm 0.00 in0.0 mm 0.01 in0.3 mm
07:14 PM 45.8°F7.7°C 39.9°F4.4°C 80% 5.0 mph ENE8.0 kmh ENE 8.0 mph12.9 kmh 29.93 in1013.5 mb 0.00 in0.0 mm 0.00 in0.0 mm 0.01 in0.3 mm
07:19 PM 45.7°F7.6°C 39.8°F4.3°C 80% 4.0 mph ENE6.4 kmh ENE 8.0 mph12.9 kmh 29.94 in1013.9 mb 0.00 in0.0 mm 0.00 in0.0 mm 0.01 in0.3 mm
07:24 PM 45.4°F7.4°C 39.5°F4.2°C 80% 4.0 mph ENE6.4 kmh ENE 8.0 mph12.9 kmh 29.94 in1013.9 mb 0.00 in0.0 mm 0.00 in0.0 mm 0.01 in0.3 mm
07:29 PM 45.2°F7.3°C 39.3°F4.1°C 80% 3.0 mph NE4.8 kmh NE 8.0 mph12.9 kmh 29.94 in1013.9 mb 0.00 in0.0 mm 0.00 in0.0 mm 0.01 in0.3 mm
07:34 PM 45.0°F7.2°C 39.5°F4.2°C 81% 4.0 mph ENE6.4 kmh ENE 8.0 mph12.9 kmh 29.94 in1013.9 mb 0.00 in0.0 mm 0.00 in0.0 mm 0.01 in0.3 mm
07:39 PM 44.6°F7.0°C 39.1°F3.9°C 81% 3.0 mph NE4.8 kmh NE 7.0 mph11.3 kmh 29.94 in1013.9 mb 0.00 in0.0 mm 0.00 in0.0 mm 0.01 in0.3 mm
07:44 PM 44.4°F6.9°C 38.9°F3.8°C 81% 5.0 mph NE8.0 kmh NE 7.0 mph11.3 kmh 29.94 in1013.9 mb 0.00 in0.0 mm 0.00 in0.0 mm 0.01 in0.3 mm
07:49 PM 44.1°F6.7°C 38.9°F3.8°C 82% 2.0 mph ENE3.2 kmh ENE 6.0 mph9.7 kmh 29.94 in1013.9 mb 0.00 in0.0 mm 0.00 in0.0 mm 0.01 in0.3 mm
07:54 PM 43.8°F6.6°C 38.6°F3.7°C 82% 4.0 mph E6.4 kmh E 6.0 mph9.7 kmh 29.94 in1013.9 mb 0.00 in0.0 mm 0.00 in0.0 mm 0.01 in0.3 mm
07:59 PM 43.6°F6.4°C 38.4°F3.6°C 82% 5.0 mph ENE8.0 kmh ENE 5.0 mph8.0 kmh 29.94 in1013.9 mb 0.00 in0.0 mm 0.00 in0.0 mm 0.01 in0.3 mm
08:04 PM 43.5°F6.4°C 38.6°F3.7°C 83% 3.0 mph NE4.8 kmh NE 7.0 mph11.3 kmh 29.94 in1013.9 mb 0.00 in0.0 mm 0.00 in0.0 mm 0.01 in0.3 mm
08:09 PM 43.3°F6.3°C 38.5°F3.6°C 83% 4.0 mph NE6.4 kmh NE 7.0 mph11.3 kmh 29.95 in1014.2 mb 0.00 in0.0 mm 0.00 in0.0 mm 0.01 in0.3 mm
08:14 PM 43.2°F6.2°C 38.4°F3.6°C 83% 3.0 mph NE4.8 kmh NE 7.0 mph11.3 kmh 29.95 in1014.2 mb 0.00 in0.0 mm 0.00 in0.0 mm 0.01 in0.3 mm
08:19 PM 43.1°F6.2°C 38.3°F3.5°C 83% 3.0 mph NE4.8 kmh NE 7.0 mph11.3 kmh 29.95 in1014.2 mb 0.00 in0.0 mm 0.00 in0.0 mm 0.01 in0.3 mm
08:24 PM 42.9°F6.1°C 38.1°F3.4°C 83% 4.0 mph ENE6.4 kmh ENE 5.0 mph8.0 kmh 29.95 in1014.2 mb 0.00 in0.0 mm 0.00 in0.0 mm 0.01 in0.3 mm
08:29 PM 42.7°F5.9°C 38.2°F3.4°C 84% 4.0 mph NE6.4 kmh NE 6.0 mph9.7 kmh 29.95 in1014.2 mb 0.00 in0.0 mm 0.00 in0.0 mm 0.01 in0.3 mm
08:34 PM 42.6°F5.9°C 38.1°F3.4°C 84% 4.0 mph ENE6.4 kmh ENE 7.0 mph11.3 kmh 29.95 in1014.2 mb 0.00 in0.0 mm 0.00 in0.0 mm 0.01 in0.3 mm
08:39 PM 42.5°F5.8°C 38.0°F3.3°C 84% 4.0 mph ENE6.4 kmh ENE 7.0 mph11.3 kmh 29.95 in1014.2 mb 0.00 in0.0 mm 0.00 in0.0 mm 0.01 in0.3 mm
08:44 PM 42.4°F5.8°C 38.2°F3.4°C 85% 4.0 mph NE6.4 kmh NE 8.0 mph12.9 kmh 29.95 in1014.2 mb 0.00 in0.0 mm 0.00 in0.0 mm 0.01 in0.3 mm
08:49 PM 42.4°F5.8°C 38.2°F3.4°C 85% 4.0 mph NE6.4 kmh NE 10.0 mph16.1 kmh 29.96 in1014.6 mb 0.00 in0.0 mm 0.00 in0.0 mm 0.01 in0.3 mm
08:54 PM 42.4°F5.8°C 38.2°F3.4°C 85% 5.0 mph NNE8.0 kmh NNE 10.0 mph16.1 kmh 29.96 in1014.6 mb 0.00 in0.0 mm 0.00 in0.0 mm 0.01 in0.3 mm
08:59 PM 42.4°F5.8°C 38.2°F3.4°C 85% 3.0 mph NNE4.8 kmh NNE 10.0 mph16.1 kmh 29.96 in1014.6 mb 0.00 in0.0 mm 0.00 in0.0 mm 0.01 in0.3 mm
09:04 PM 42.4°F5.8°C 38.2°F3.4°C 85% 5.0 mph NE8.0 kmh NE 10.0 mph16.1 kmh 29.97 in1014.9 mb 0.00 in0.0 mm 0.00 in0.0 mm 0.01 in0.3 mm
09:09 PM 42.3°F5.7°C 38.1°F3.4°C 85% 4.0 mph NE6.4 kmh NE 8.0 mph12.9 kmh 29.96 in1014.6 mb 0.00 in0.0 mm 0.00 in0.0 mm 0.01 in0.3 mm
09:14 PM 42.3°F5.7°C 38.1°F3.4°C 85% 2.0 mph ENE3.2 kmh ENE 8.0 mph12.9 kmh 29.96 in1014.6 mb 0.00 in0.0 mm 0.00 in0.0 mm 0.01 in0.3 mm
09:19 PM 42.2°F5.7°C 38.0°F3.3°C 85% 3.0 mph ENE4.8 kmh ENE 7.0 mph11.3 kmh 29.96 in1014.6 mb 0.00 in0.0 mm 0.00 in0.0 mm 0.01 in0.3 mm
09:24 PM 42.1°F5.6°C 37.9°F3.3°C 85% 5.0 mph NE8.0 kmh NE 7.0 mph11.3 kmh 29.97 in1014.9 mb 0.00 in0.0 mm 0.00 in0.0 mm 0.01 in0.3 mm
09:29 PM 42.1°F5.6°C 37.9°F3.3°C 85% 8.0 mph ENE12.9 kmh ENE 9.0 mph14.5 kmh 29.97 in1014.9 mb 0.00 in0.0 mm 0.00 in0.0 mm 0.01 in0.3 mm
09:34 PM 42.1°F5.6°C 37.9°F3.3°C 85% 9.0 mph ENE14.5 kmh ENE 11.0 mph17.7 kmh 29.97 in1014.9 mb 0.00 in0.0 mm 0.00 in0.0 mm 0.01 in0.3 mm
09:39 PM 42.0°F5.6°C 37.8°F3.2°C 85% 3.0 mph NE4.8 kmh NE 11.0 mph17.7 kmh 29.97 in1014.9 mb 0.00 in0.0 mm 0.00 in0.0 mm 0.01 in0.3 mm
09:44 PM 41.9°F5.5°C 37.7°F3.2°C 85% 4.0 mph NE6.4 kmh NE 11.0 mph17.7 kmh 29.97 in1014.9 mb 0.00 in0.0 mm 0.00 in0.0 mm 0.01 in0.3 mm
09:49 PM 41.9°F5.5°C 37.7°F3.2°C 85% 4.0 mph NE6.4 kmh NE 12.0 mph19.3 kmh 29.97 in1014.9 mb 0.00 in0.0 mm 0.00 in0.0 mm 0.01 in0.3 mm
09:54 PM 41.9°F5.5°C 37.7°F3.2°C 85% 5.0 mph NE8.0 kmh NE 12.0 mph19.3 kmh 29.97 in1014.9 mb 0.00 in0.0 mm 0.00 in0.0 mm 0.01 in0.3 mm
09:59 PM 41.9°F5.5°C 37.7°F3.2°C 85% 4.0 mph N6.4 kmh N 12.0 mph19.3 kmh 29.97 in1014.9 mb 0.00 in0.0 mm 0.00 in0.0 mm 0.01 in0.3 mm
10:04 PM 41.9°F5.5°C 37.7°F3.2°C 85% 4.0 mph NE6.4 kmh NE 13.0 mph20.9 kmh 29.96 in1014.6 mb 0.00 in0.0 mm 0.00 in0.0 mm 0.01 in0.3 mm
10:09 PM 41.9°F5.5°C 37.7°F3.2°C 85% 2.0 mph NE3.2 kmh NE 13.0 mph20.9 kmh 29.96 in1014.6 mb 0.00 in0.0 mm 0.00 in0.0 mm 0.01 in0.3 mm
10:14 PM 41.9°F5.5°C 37.7°F3.2°C 85% 6.0 mph NNE9.7 kmh NNE 13.0 mph20.9 kmh 29.96 in1014.6 mb 0.00 in0.0 mm 0.00 in0.0 mm 0.01 in0.3 mm
10:19 PM 41.9°F5.5°C 37.7°F3.2°C 85% 4.0 mph NNE6.4 kmh NNE 13.0 mph20.9 kmh 29.96 in1014.6 mb 0.00 in0.0 mm 0.00 in0.0 mm 0.01 in0.3 mm
10:24 PM 41.8°F5.4°C 37.3°F2.9°C 84% 8.0 mph N12.9 kmh N 10.0 mph16.1 kmh 29.96 in1014.6 mb 0.00 in0.0 mm 0.00 in0.0 mm 0.01 in0.3 mm
10:29 PM 41.8°F5.4°C 37.3°F2.9°C 84% 5.0 mph NE8.0 kmh NE 10.0 mph16.1 kmh 29.95 in1014.2 mb 0.00 in0.0 mm 0.00 in0.0 mm 0.01 in0.3 mm
10:34 PM 41.7°F5.4°C 37.2°F2.9°C 84% 4.0 mph NE6.4 kmh NE 10.0 mph16.1 kmh 29.96 in1014.6 mb 0.00 in0.0 mm 0.00 in0.0 mm 0.01 in0.3 mm
10:39 PM 41.6°F5.3°C 37.1°F2.8°C 84% 7.0 mph N11.3 kmh N 11.0 mph17.7 kmh 29.95 in1014.2 mb 0.00 in0.0 mm 0.00 in0.0 mm 0.01 in0.3 mm
10:44 PM 41.4°F5.2°C 36.9°F2.7°C 84% 3.0 mph NE4.8 kmh NE 11.0 mph17.7 kmh 29.96 in1014.6 mb 0.00 in0.0 mm 0.00 in0.0 mm 0.01 in0.3 mm
10:49 PM 41.2°F5.1°C 36.4°F2.4°C 83% 5.0 mph NE8.0 kmh NE 11.0 mph17.7 kmh 29.95 in1014.2 mb 0.00 in0.0 mm 0.00 in0.0 mm 0.01 in0.3 mm
10:54 PM 40.9°F4.9°C 36.1°F2.3°C 83% 5.0 mph NE8.0 kmh NE 11.0 mph17.7 kmh 29.95 in1014.2 mb 0.00 in0.0 mm 0.00 in0.0 mm 0.01 in0.3 mm
10:59 PM 40.6°F4.8°C 35.8°F2.1°C 83% 3.0 mph NE4.8 kmh NE 11.0 mph17.7 kmh 29.95 in1014.2 mb 0.00 in0.0 mm 0.00 in0.0 mm 0.01 in0.3 mm
11:04 PM 40.3°F4.6°C 35.5°F1.9°C 83% 4.0 mph NE6.4 kmh NE 11.0 mph17.7 kmh 29.95 in1014.2 mb 0.00 in0.0 mm 0.00 in0.0 mm 0.00 in0.0 mm
11:09 PM 40.1°F4.5°C 35.3°F1.8°C 83% 3.0 mph NE4.8 kmh NE 7.0 mph11.3 kmh 29.95 in1014.2 mb 0.00 in0.0 mm 0.00 in0.0 mm 0.00 in0.0 mm
11:14 PM 39.8°F4.3°C 35.0°F1.7°C 83% 3.0 mph NNE4.8 kmh NNE 7.0 mph11.3 kmh 29.95 in1014.2 mb 0.00 in0.0 mm 0.00 in0.0 mm 0.00 in0.0 mm
11:19 PM 39.6°F4.2°C 34.8°F1.6°C 83% 3.0 mph NE4.8 kmh NE 7.0 mph11.3 kmh 29.95 in1014.2 mb 0.00 in0.0 mm 0.00 in0.0 mm 0.00 in0.0 mm
11:24 PM 39.4°F4.1°C 34.6°F1.4°C 83% 3.0 mph NE4.8 kmh NE 7.0 mph11.3 kmh 29.95 in1014.2 mb 0.00 in0.0 mm 0.00 in0.0 mm 0.00 in0.0 mm
11:29 PM 39.2°F4.0°C 34.5°F1.4°C 83% 4.0 mph NE6.4 kmh NE 6.0 mph9.7 kmh 29.95 in1014.2 mb 0.00 in0.0 mm 0.00 in0.0 mm 0.00 in0.0 mm
11:34 PM 39.0°F3.9°C 34.3°F1.3°C 83% Calm Calm 6.0 mph9.7 kmh 29.95 in1014.2 mb 0.00 in0.0 mm 0.00 in0.0 mm 0.00 in0.0 mm
11:39 PM 38.9°F3.8°C 34.2°F1.2°C 83% Calm Calm -- 29.95 in1014.2 mb 0.00 in0.0 mm 0.00 in0.0 mm 0.00 in0.0 mm
11:44 PM 38.8°F3.8°C 34.1°F1.2°C 83% Calm Calm -- 29.95 in1014.2 mb 0.00 in0.0 mm 0.00 in0.0 mm 0.00 in0.0 mm
11:49 PM 38.6°F3.7°C 33.9°F1.1°C 83% Calm Calm 1.0 mph1.6 kmh 29.95 in1014.2 mb 0.00 in0.0 mm 0.00 in0.0 mm 0.00 in0.0 mm
11:54 PM 38.4°F3.6°C 33.7°F0.9°C 83% Calm Calm -- 29.95 in1014.2 mb 0.00 in0.0 mm 0.00 in0.0 mm 0.00 in0.0 mm
11:59 PM 38.2°F3.4°C 33.5°F0.8°C 83% Calm Calm -- 29.95 in1014.2 mb 0.00 in0.0 mm 0.00 in0.0 mm 0.00 in0.0 mm